Costa Fascinosa — ICPO — position and weather

sailwx.info

Track history (hours):
 
Tides and Currents Weather Stations Pressure Air Temp Water Temp Dewpoint Dewpoint Depression Visibility Wind Speed Wind Dir Waves Ship Positions

Costa Fascinosa

Last reported at 2020-Jan-16 17:28 UTC. Time now 2020-Jan-18 14:57 UTC.
Position S 34°54' W 056°13'.

Length 290 m; draft 8.3 m.

Type: Passenger vessel. MMSI: 247313500.

Date/timePositionNaut miles runAvg speedWind from/ knotsBaromVisibWave heightAir tempDewpointWater temp
2020-Jan-16 17:28S 34°54' W 056°13'0 0.0
2020-Jan-16 16:55S 34°54' W 056°13'0 0.0
2020-Jan-16 13:58S 34°54' W 056°13'0 0.0
2020-Jan-16 12:58S 34°54' W 056°13'0 0.0
2020-Jan-16 12:28S 34°54' W 056°13'0 0.1
2020-Jan-16 12:00S 34°54' W 056°13'6 6.3
2020-Jan-16 11:00S 35°00' W 056°11'10 6.4
2020-Jan-16 09:30S 35°02' W 055°59'4 2.9
2020-Jan-16 08:05S 35°05' W 055°55'3910.8
2020-Jan-16 04:30S 35°10' W 056°42'3 0.1
2020-Jan-14 00:51S 35°10' W 056°39'4911.3
2020-Jan-13 20:31S 35°04' W 055°39'3914.2
2020-Jan-13 17:44S 35°04' W 054°51'79918.3
2020-Jan-11 22:03S 24°01' W 046°20'4 6.3
2020-Jan-11 21:30S 23°58' W 046°18'1 1.4
2020-Jan-11 20:56S 23°57' W 046°19'0 0.0
2020-Jan-11 16:50S 23°57' W 046°19'0 0.0
2020-Jan-11 15:56S 23°57' W 046°19'0 0.0
2020-Jan-11 10:44S 23°57' W 046°19'154 6.8
2020-Jan-10 12:14S 23°28' W 043°33'3419.7
2020-Jan-10 10:30S 23°23' W 042°57'  
Track history (hours):
 
Tides and Currents Weather Stations Pressure Air Temp Water Temp Dewpoint Dewpoint Depression Visibility Wind Speed Wind Dir Waves Ship Positions

Costa Fascinosa

Last reported at 2020-Jan-16 17:28 UTC. Time now 2020-Jan-18 14:57 UTC.
Position S 34°54' W 056°13'.

Length 290 m; draft 8.3 m.

Type: Passenger vessel. MMSI: 247313500.

Date/timePositionNaut miles runAvg speedWind from/ knotsBaromVisibWave heightAir tempDewpointWater temp
2020-Jan-16 17:28S 34°54' W 056°13'0 0.0
2020-Jan-16 16:55S 34°54' W 056°13'0 0.0
2020-Jan-16 13:58S 34°54' W 056°13'0 0.0
2020-Jan-16 12:58S 34°54' W 056°13'0 0.0
2020-Jan-16 12:28S 34°54' W 056°13'0 0.1
2020-Jan-16 12:00S 34°54' W 056°13'6 6.3
2020-Jan-16 11:00S 35°00' W 056°11'10 6.4
2020-Jan-16 09:30S 35°02' W 055°59'4 2.9
2020-Jan-16 08:05S 35°05' W 055°55'3910.8
2020-Jan-16 04:30S 35°10' W 056°42'3 0.1
2020-Jan-14 00:51S 35°10' W 056°39'4911.3
2020-Jan-13 20:31S 35°04' W 055°39'3914.2
2020-Jan-13 17:44S 35°04' W 054°51'79918.3
2020-Jan-11 22:03S 24°01' W 046°20'4 6.3
2020-Jan-11 21:30S 23°58' W 046°18'1 1.4
2020-Jan-11 20:56S 23°57' W 046°19'0 0.0
2020-Jan-11 16:50S 23°57' W 046°19'0 0.0
2020-Jan-11 15:56S 23°57' W 046°19'0 0.0
2020-Jan-11 10:44S 23°57' W 046°19'154 6.8
2020-Jan-10 12:14S 23°28' W 043°33'3419.7
2020-Jan-10 10:30S 23°23' W 042°57'  

Dump ship's entire track history